EHI
0 0 0 0 0 0 0 0 0 0 0 0 0 0 0 0 0 0 0 0 0 0 0 0 0 0 0 0 0 0 0 0 0 0 0 0 0 0 0 0 0 0 0 0
0 0 0 0 0 0 0 0 0 0 0 0 0 0 0 0 0 0 0 0 0 0 0 0 0 0 0 0 0 0 0 0 0 0 0 0 0 0 0 0 0 0 0 0
0 0 0 0 0 0 0 0 0 0 0 0 0 0 0 0 0 0 0 0 0 0 0 0 0 0 0 0 0 0 0 0 0 0 0 0 0 0 0 0 0 0 0 0
0 0 0 0 0 0 0 0 0 0 0 0 0 0 0 0 0 0 0 0 0 0 0 0 0 0 0 0 0 0 0 0 0 0 0 0 0 0 0 0 0 0 0 0
0 0 0 0 0 0 0 0 0 0 0 0 0 0 0 0 0 0 0 0 0 0 0 0 0 0 0 0 0 0 0 0 0 0 0 0 0 0 0 0 0 0 0 0
0 0 0 0 0 0 0 0 0 0 0 0 0 0 0 0 0 0 0 0 0 0 0 0 0 0 0 0 0 0 0 0 0 0 0 0 0 0 0 0 0 0 0 0
0 0 0 0 0 0 0 0 0 0 0 0 0 0 0 0 0 0 0 0 0 0 0 0 0 0 0 0 0 0 0 0 0 0 0 0 0 0 0 0 0 0 0 0
0 0 0 0 0 0 0 0 0 0 0 0 0 0 0 0 0 0 0 0 0 0 0 0 0 0 0 0 0 0 0 0 0 0 0 0 0 0 0 0 0 0 0 0
0 0 0 0 0 0 0 0 0 0 0 0 0 0 0 0 0 0 0 0 0 0 0 0 0 0 0 0 0 0 0 0 0 0 0 0 0 0 0 0 0 0 0 0
0 0 0 0 0 0 0 0 0 0 0 0 0 0 0 0 0 0 0 0 0 0 0 0 0 0 0 0 0 0 0 0 0 0 0 0 0 0 0 0 0 0 0 0
0 0 0 0 0 0 0 0 0 0 0 0 0 0 0 0 0 0 0 0 0 0 0 0 0 0 0 0 0 0 0 0 0 0 0 0 0 0 0 0 0 0 0 0
0 0 0 0 0 0 0 0 0 0 0 0 0 0 0 0 0 0 0 0 0 0 0 0 0 0 0 0 0 0 0 0 0 0 0 0 0 0 0 0 0 0 0 0
0 0 0 0 0 0 0 0 0 0 0 0 0 0 0 0 0 0 0 0 0 0 0 0 0 0 0 0 0 0 0 0 0 0 0 0 0 0 0 0 0 0 0 0
0 0 0 0 0 0 0 0 0 0 0 0 0 0 0 0 0 0 0 0 0 0 0 0 0 0 0 0 0 0 0 0 0 0 0 0 0 0 0 0 0 0 0 0
0 0 0 0 0 0 0 0 0 0 0 0 0 0 0 0 0 0 0 0 0 0 0 0 0 0 0 0 0 0 0 0 0 0 0 0 0 0 0 0 0 0 0 0
0 0 0 0 0 0 0 0 0 0 0 0 0 0 0 0 0 0 0 0 0 0 0 0 0 0 0 0 0 0 0 0 0 0 0 0 0 0 0 0 0 0 0 0
0 0 0 0 0 0 0 0 0 0 0 0 0 0 0 0 0 0 0 0 0 0 0 0 0 0 0 0 0 0 0 0 0 0 0 0 0 0 0 0 0 0 0 0
0 0 0 0 0 0 0 0 0 0 0 0 0 0 0 0 0 0 0 0 0 0 0 0 0 0 0 0 0 0 0 0 0 0 0 0 0 0 0 0 0 0 0 0
0 0 0 0 0 0 0 0 0 0 0 0 0 0 0 0 0 0 0 0 0 0 0 0 0 0 0 0 0 0 0 0 0 0 0 0 0 0 0 0 0 0 0 0
0 0 0 0 0 0 0 0 0 0 0 0 0 0 0 0 0 0 0 0 0 0 0 0 0 0 0 0 0 0 0 0 0 0 0 0 0 0 0 0 0 0 0 0
0 0 0 0 0 0 0 0 0 0 0 0 0 0 0 0 0 0 0 0 0 0 0 0 0 0 0 0 0 0 0 0 0 0 0 0 0 0 0 0 0 0 0 0
0 0 0 0 0 0 0 0 0 0 0 0 0 0 0 0 0 0 0 0 0 0 0 0 0 0 0 0 0 0 0 0 0 0 0 0 0 0 0 0 0 0 0 0
0 0 0 0 0 0 0 0 0 0 0 0 0 0 0 0 0 0 0 0 0 0 0 0 0 0 0 0 0 0 0 0 0 0 0 0 0 0 0 0 0 0 0 0
0 0 0 0 0 0 0 0 0 0 0 0 0 0 0 0 0 0 0 0 0 0 0 0 0 0 0 0 0 0 0 0 0 0 0 0 0 0 0 0 0 0 0 0
0 0 0 0 0 0 0 0 0 0 0 0 0 0 0 0 0 0 0 0 0 0 0 0 0 0 0 0 0 0 0 0 0 0 0 0 0 0 0 0 0 0 0 0
0 0 0 0 0 0 0 0 0 0 0 0 0 0 0 0 0 0 0 0 0 0 0 0 0 0 0 0 0 0 0 0 0 0 0 0 0 0 0 0 0 0 0 0
0 0 0 0 0 0 0 0 0 0 0 0 0 0 0 0 0 0 0 0 0 0 0 0 0 0 0 0 0 0 0 0 0 0 0 0 0 0 0 0 0 0 0 0
Wind_Speed
4 4 3 4 5 4 5 7 8 7 7 8 6 5 5 3 1 2 2 2 4 4 4 4 4 4 5 5 5 5 5 5 5 4 3 3 3 3 3 3 3 3 3 2
3 3 4 6 7 7 7 6 6 5 8 7 5 2 2 2 2 3 3 3 3 4 4 5 5 5 5 5 5 5 6 6 5 4 4 4 4 3 3 3 3 3 3 3
3 3 3 7 7 7 5 5 7 8 9 3 2 3 4 4 3 4 4 4 4 5 6 6 6 6 7 6 5 5 6 5 5 5 4 4 4 4 4 3 3 3 3 3
1 0 7 8 4 6 6 6 5 5 5 4 6 4 3 3 4 4 4 4 4 4 4 4 4 4 4 5 5 6 5 5 5 5 5 4 4 4 4 3 3 3 3 3
3 3 7 6 3 3 4 6 4 5 4 4 2 1 3 2 3 5 5 5 5 5 4 4 4 4 4 5 5 5 6 6 6 6 6 5 5 5 4 4 3 3 3 4
4 4 7 7 4 2 3 5 4 4 4 3 2 1 5 4 3 3 3 3 2 2 2 3 3 4 5 5 5 6 7 7 6 6 7 7 6 5 4 4 4 4 3 3
5 5 8 7 4 2 3 6 3 3 3 3 4 6 5 3 3 3 3 3 3 3 4 4 4 5 5 5 6 6 5 5 5 5 6 6 5 4 4 4 4 3 3 2
6 6 9 3 2 5 5 3 2 2 2 3 4 4 4 3 3 3 2 2 3 4 3 3 4 5 5 6 5 4 4 4 4 5 5 4 5 4 4 5 4 3 2 1
8 8 5 2 3 3 2 2 3 3 3 3 3 4 4 4 4 3 4 3 3 4 4 3 3 5 6 5 3 4 4 4 4 4 4 4 5 5 4 4 4 3 3 3
4 6 5 5 4 2 2 3 4 4 3 2 4 4 4 3 3 3 3 4 3 4 3 3 4 4 5 4 4 4 4 4 4 4 4 3 4 4 4 5 5 4 4 4
5 6 5 5 5 4 4 4 4 4 4 3 3 4 4 3 3 3 3 3 4 5 5 5 4 3 3 3 4 5 4 4 3 4 4 4 3 3 4 4 5 6 5 5
8 8 6 7 5 4 5 5 5 5 5 4 3 4 4 4 3 3 3 3 4 4 4 4 4 3 3 4 5 5 4 3 3 3 3 4 4 2 2 3 4 5 5 5
9 8 7 8 7 6 6 6 6 5 5 4 4 3 3 3 3 3 3 4 5 5 5 4 4 3 3 4 5 5 5 4 4 4 4 4 4 4 3 2 3 3 4 5
7 5 7 7 7 6 6 6 5 4 4 4 4 3 3 3 2 3 4 5 4 4 4 4 4 4 4 4 5 5 5 5 5 4 4 4 4 4 4 4 2 1 1 4
8 7 8 7 6 5 5 3 3 4 4 4 3 3 3 3 4 4 3 3 3 3 3 4 4 4 3 4 5 5 4 4 4 4 4 4 4 4 4 4 3 2 1 2
6 6 6 6 7 6 4 4 4 5 4 3 3 3 3 3 3 3 3 3 4 4 5 5 5 4 4 4 4 4 4 6 5 4 4 4 4 4 4 4 3 3 3 2
6 7 6 7 7 7 6 6 5 5 4 4 4 3 2 1 2 2 2 3 4 4 5 5 5 4 4 5 5 4 4 5 7 5 4 4 4 4 4 4 3 3 2 3
10 10 9 8 7 7 6 5 5 5 5 4 3 2 2 2 3 3 3 1 1 1 2 3 3 4 4 4 4 4 4 4 4 4 4 4 4 4 4 4 4 3 2 2
8 8 8 8 8 7 6 5 5 4 4 3 3 3 3 3 3 3 2 2 2 3 3 2 3 3 4 5 4 4 5 5 4 4 4 6 5 4 4 4 4 3 3 3
6 6 6 6 6 5 5 4 3 3 3 3 2 2 2 2 2 2 2 3 3 3 3 2 3 3 4 5 5 4 5 5 5 5 4 4 5 4 4 4 4 3 3 3
4 4 4 4 4 4 4 4 3 3 3 2 3 3 2 2 2 2 2 2 2 1 3 3 3 3 3 4 6 4 5 5 5 5 5 4 4 4 4 4 4 3 3 3
3 3 3 3 3 3 3 3 3 3 2 2 2 2 2 1 1 1 1 2 2 2 2 2 2 3 4 5 4 4 4 5 4 4 4 4 4 4 4 4 3 3 3 3
2 2 3 3 4 3 2 2 2 2 2 3 3 3 3 3 2 2 1 1 1 2 2 2 3 5 6 5 4 4 5 5 4 4 4 4 4 4 4 4 3 3 3 3
2 2 2 2 2 2 1 1 1 1 1 1 1 2 3 2 1 1 1 2 2 2 2 3 6 7 6 4 4 4 4 4 4 4 4 4 4 4 4 4 3 3 3 3
1 1 2 3 2 2 2 1 1 1 1 1 1 1 1 2 2 1 1 3 4 4 3 4 6 6 4 4 4 4 4 4 4 5 5 4 4 4 4 3 3 3 3 3
1 1 1 2 2 2 2 2 1 1 1 1 1 1 1 2 2 2 2 3 5 5 3 3 4 5 4 4 5 5 4 5 5 4 5 5 5 4 4 4 4 3 3 3
1 1 1 1 1 1 1 2 2 1 1 2 2 1 2 2 3 3 4 4 4 3 3 3 4 4 4 4 5 5 5 5 4 4 4 4 4 4 4 4 3 3 3 3
Wind_Direction
234 248 232 239 244 223 208 199 201 228 232 256 265 261 270 268 231 164 169 177 186 191 193 187 184 185 185 184 179 174 172 184 199 196 185 181 181 177 172 170 169 161 151 150
259 260 255 263 258 236 229 220 221 238 256 253 257 246 257 246 204 200 206 208 205 201 198 194 192 189 186 187 185 175 180 192 195 182 178 184 186 174 165 165 160 151 160 163
249 284 310 264 238 217 216 210 195 219 238 248 253 236 229 227 206 209 217 211 207 208 209 207 200 190 192 192 179 175 184 189 186 182 185 192 182 167 174 176 165 165 174 172
193 124 239 246 222 200 213 236 218 222 239 221 225 233 232 212 200 219 226 222 219 216 217 214 199 190 185 171 171 179 186 191 189 184 189 187 175 178 181 171 170 175 180 186
162 219 266 281 260 198 201 254 233 225 244 239 241 355 302 256 215 218 222 223 221 213 206 197 191 180 164 170 175 182 192 198 197 188 188 185 187 190 181 167 174 180 181 184
163 202 237 245 256 228 157 263 263 225 238 240 142 219 258 248 233 246 249 237 220 199 178 180 188 168 161 175 182 200 205 204 197 190 189 193 195 189 175 170 181 178 182 190
189 223 257 257 280 110 167 244 271 221 224 212 200 222 246 245 235 235 236 233 201 179 181 194 182 167 174 183 203 213 204 194 188 190 195 194 188 179 168 165 164 169 179 196
177 207 246 255 157 180 218 252 274 255 242 232 242 260 266 248 240 238 229 216 189 177 188 191 177 172 184 203 212 193 182 185 188 193 194 184 174 172 164 160 161 172 169 193
194 214 240 239 218 241 240 264 277 270 268 242 251 266 265 255 245 233 214 206 193 180 178 181 184 181 193 213 190 174 180 191 189 186 187 175 168 169 162 162 168 177 176 191
238 255 264 272 271 276 272 263 274 272 268 255 253 259 263 259 246 231 212 200 190 174 177 198 202 201 207 198 171 167 180 190 182 176 176 170 166 168 170 176 176 181 187 193
245 262 285 273 263 272 288 295 300 300 287 263 253 260 255 253 248 231 215 200 186 184 190 204 203 206 202 179 166 168 179 183 177 173 169 166 162 172 181 194 188 186 193 187
235 233 228 252 263 269 279 284 283 291 298 290 257 253 255 250 244 224 211 203 193 194 194 200 198 202 200 182 170 166 173 177 172 167 165 158 149 124 110 152 166 181 182 175
241 249 247 257 265 259 259 269 274 270 262 276 279 256 248 255 246 222 214 204 201 203 200 194 191 199 202 188 177 176 179 181 173 167 166 163 159 156 148 85 89 140 169 169
244 245 259 259 258 263 264 269 268 268 269 265 265 258 245 239 219 216 219 217 208 201 196 190 191 205 205 185 177 179 177 178 169 171 172 170 168 167 165 160 151 124 158 165
249 241 242 256 264 264 264 254 256 269 274 279 270 258 230 214 219 227 228 213 191 191 195 190 195 215 203 181 176 177 173 171 167 162 162 162 156 156 154 154 155 153 124 126
258 263 244 240 246 255 259 244 238 252 253 256 264 259 241 228 230 227 214 190 183 203 205 197 204 210 190 177 173 171 175 170 160 156 153 151 152 154 157 157 160 166 177 185
233 248 245 240 242 247 249 242 234 242 245 240 249 256 239 223 233 231 232 224 211 214 209 203 205 194 183 180 174 168 165 164 156 149 156 161 160 165 165 160 164 174 194 185
227 233 234 231 231 238 246 242 237 242 240 234 230 219 209 209 225 239 251 248 220 239 226 210 195 180 182 182 172 161 159 158 158 159 158 158 159 160 158 159 163 165 164 149
233 232 236 237 236 231 232 232 233 238 235 221 208 216 222 226 230 228 221 208 202 226 243 202 180 175 178 174 155 153 154 153 151 151 153 152 150 150 153 155 156 158 153 143
242 233 229 234 231 224 225 228 229 232 222 199 197 217 232 244 233 211 196 221 229 223 203 188 171 173 171 164 146 149 152 151 150 148 147 151 154 155 155 156 155 151 146 145
240 226 212 214 221 222 215 211 209 220 221 194 192 212 229 246 226 191 180 243 268 195 169 168 165 167 162 152 145 144 145 145 146 148 150 151 153 155 154 152 151 150 149 149
241 218 214 210 204 221 225 206 199 197 198 205 209 201 190 216 220 233 246 226 220 181 160 163 157 157 151 141 142 142 142 144 144 144 145 147 149 148 147 147 148 147 145 143
235 217 209 204 199 202 208 205 195 187 198 212 207 193 185 194 190 185 243 257 194 171 152 159 146 141 139 134 138 140 139 142 143 145 146 145 145 145 144 143 141 137 135 133
243 214 207 195 168 155 173 232 216 193 202 241 211 188 168 160 200 245 212 182 159 132 132 145 137 134 130 129 131 133 137 139 137 133 130 129 128 128 130 131 130 128 127 126
237 215 185 160 154 170 175 144 87 63 51 37 35 65 116 151 172 173 137 129 121 106 110 131 130 126 123 125 128 128 127 130 129 128 126 127 126 126 126 126 127 128 130 133
222 194 193 182 178 172 165 150 153 174 154 129 83 71 78 86 104 111 107 104 105 102 104 116 118 111 111 118 118 118 118 121 121 118 120 122 122 124 126 127 126 127 127 126
174 182 160 126 107 147 162 163 164 178 173 155 137 110 101 97 98 102 102 100 98 96 96 96 101 106 111 112 111 109 108 107 108 109 112 112 115 119 123 125 122 119 119 116